Погода в Со-Сент-Мари

Канада     46°31′04″N   84°20′52″W
темп.,
°C
ветер,
м/с
пор.,
м/с
влажн.,
%
обл.,
%
осадки,
мм/ч
давл.,
гПа
погр.,
м
11 мая, вт
вт1123:00+2сз369898 2.9 1021376
02:00−1сз239744 2.9 102255
05:00−2сз2696100 0.0 1022115
08:00+1ссз4992100 0.0 1023526
11:00+5сз5772100 0.0 10241156
14:00+6сз6866100 0.1 10241328
17:00+8сз686041 0.0 10251064
20:00+4сз49789 0.0 1026378
12 мая, ср
ср1223:000сз28945 0.0 1028154
02:000сз310931 0.0 1028201
05:000сз28950 0.0 1029162
08:00+4сз27735 0.0 1030204
11:00+11зсз47455 0.0 1030759
14:00+14зсз57345 0.0 10291296
17:00+14сз47375 0.0 1028954
20:00+9зсз27595 0.0 1029230
13 мая, чт
чт1323:00+3зсз227035 0.0 103020
02:00+3сз22735 0.0 102913
05:00+2сз11735 0.0 103010
08:00+7зсз12595 0.0 103097
11:00+15з23372 0.0 1028787
14:00+17з33315 0.0 10271604
17:00+18зсз33305 0.0 10251678
20:00+12зсз24595 0.0 1026100
14 мая, пт
пт1423:00+7зсз11615 0.0 102612
02:00+5зюз017751 0.0 102610
05:00+4ююз119024 0.0 102610
08:00+8юз017917 0.0 1027111
11:00+15юз225675 0.0 1025775
14:00+17з3350100 0.6 10241835
17:00+15з4661100 0.8 1024662
20:00+12зсз257489 0.8 1024185
15 мая, сб
сб1523:00+7з119261 0.0 102510
02:00+6ююз119110 0.0 102511
05:00+5ююз11905 0.0 102510
08:00+9юз12725 0.0 1026151
11:00+16зюз24545 0.0 1025829
14:00+19зюз334316 0.1 10242231
17:00+17з345395 0.0 1023692
20:00+13з22712 0.0 102355